Location: Unspecified
(39.4830°S, 0.0000°E)
Time: 20:56:55
(UTC+00:00)

OTV 5 (USA 277) - Visible Passes

Search period start: 26 May 2019 00:00
Search period end: 05 June 2019 00:00
Orbit: 310 x 325 km, 54.5° (Epoch: 08 May)

Date Brightness Start Highest point End Pass type
(mag) Time Alt. Az. Time Alt. Az. Time Alt. Az.
26 May ? 18:21:19 10° N 18:21:33 11° NNE 18:21:33 11° NNE visible
27 May ? 18:35:03 10° NNW 18:36:20 24° NNW 18:36:20 24° NNW visible
28 May ? 18:49:46 10° WNW 18:51:02 23° WNW 18:51:02 23° WNW visible
29 May ? 17:30:34 10° NNW 17:32:56 28° NE 17:34:44 15° ESE visible
29 May ? 19:05:12 10° W 19:05:38 13° WSW 19:05:38 13° WSW visible
30 May ? 17:44:52 10° NW 17:47:35 85° SW 17:49:15 21° SE visible
31 May ? 17:59:57 10° W 18:02:24 28° SW 18:03:41 19° S visible
01 Jun ? 18:15:48 10° WSW 18:17:21 14° SSW 18:18:03 13° SSW visible
03 Jun ? 17:10:19 10° W 17:12:25 19° SSW 17:14:31 10° SSE visible
04 Jun ? 17:26:56 10° SW 17:27:28 10° SSW 17:27:59 10° SSW visible
